TimePDT,TemperatureF,Dew PointF,Humidity,Sea Level PressureIn,VisibilityMPH,Wind Direction,Wind SpeedMPH,Gust SpeedMPH,PrecipitationIn,Events,Conditions,WindDirDegrees,DateUTC
12:53 AM,82.9,66.0,56,29.70,10.0,East,5.8,-,N/A,,Clear,90,2013-09-21 07:53:00
1:53 AM,82.0,66.0,58,29.70,10.0,NE,3.5,-,N/A,,Clear,50,2013-09-21 08:53:00
2:53 AM,81.0,66.9,62,29.70,10.0,East,3.5,-,N/A,,Clear,80,2013-09-21 09:53:00
3:53 AM,81.0,64.9,58,29.69,10.0,NE,3.5,-,N/A,,Clear,50,2013-09-21 10:53:00
4:53 AM,79.0,63.0,58,29.70,10.0,East,3.5,-,N/A,,Clear,100,2013-09-21 11:53:00
5:53 AM,77.0,63.0,62,29.70,10.0,Calm,Calm,-,N/A,,Clear,0,2013-09-21 12:53:00
6:53 AM,73.0,63.0,71,29.72,10.0,WSW,3.5,-,N/A,,Clear,250,2013-09-21 13:53:00
7:53 AM,77.0,62.1,60,29.73,10.0,SSW,3.5,-,N/A,,Clear,210,2013-09-21 14:53:00
8:53 AM,79.0,55.0,44,29.74,10.0,West,4.6,-,N/A,,Clear,270,2013-09-21 15:53:00
9:53 AM,84.0,55.0,37,29.75,10.0,Variable,3.5,-,N/A,,Clear,0,2013-09-21 16:53:00
10:53 AM,90.0,55.0,30,29.73,10.0,Calm,Calm,-,N/A,,Clear,0,2013-09-21 17:53:00
11:53 AM,93.0,53.1,26,29.72,10.0,South,3.5,-,N/A,,Clear,190,2013-09-21 18:53:00
12:53 PM,93.9,50.0,22,29.68,10.0,Calm,Calm,-,N/A,,Clear,0,2013-09-21 19:53:00
1:53 PM,97.0,45.0,17,29.65,10.0,Variable,3.5,-,N/A,,Clear,0,2013-09-21 20:53:00
2:53 PM,98.1,43.0,15,29.63,10.0,Variable,5.8,-,N/A,,Clear,0,2013-09-21 21:53:00
3:53 PM,99.0,32.0,10,29.60,10.0,WSW,13.8,20.7,N/A,,Clear,250,2013-09-21 22:53:00
4:53 PM,97.0,37.9,13,29.59,10.0,WSW,19.6,26.5,N/A,,Clear,250,2013-09-21 23:53:00
5:53 PM,91.9,46.9,21,29.60,10.0,WSW,18.4,-,N/A,,Clear,250,2013-09-22 00:53:00
6:53 PM,86.0,46.9,26,29.60,10.0,WSW,24.2,32.2,N/A,,Clear,250,2013-09-22 01:53:00
7:53 PM,82.0,48.0,30,29.61,10.0,West,16.1,26.5,N/A,,Clear,260,2013-09-22 02:53:00
8:53 PM,80.1,46.9,31,29.64,10.0,West,17.3,-,N/A,,Clear,260,2013-09-22 03:53:00
9:53 PM,77.0,48.9,37,29.64,10.0,West,17.3,-,N/A,,Clear,260,2013-09-22 04:53:00
10:53 PM,75.0,52.0,44,29.66,10.0,West,13.8,23.0,N/A,,Clear,260,2013-09-22 05:53:00
11:53 PM,73.9,51.1,45,29.66,10.0,West,15.0,-,N/A,,Clear,260,2013-09-22 06:53:00